TimeEST,TemperatureF,Dew PointF,Humidity,Sea Level PressureIn,VisibilityMPH,Wind Direction,Wind SpeedMPH,Gust SpeedMPH,PrecipitationIn,Events,Conditions,WindDirDegrees,DateUTC
12:15 AM,37.4,33.8,87,30.07,7.0,East,3.5,-,N/A,,Clear,90,2012-12-20 05:15:00
12:35 AM,35.6,32.0,87,30.06,10.0,ENE,3.5,-,N/A,,Clear,60,2012-12-20 05:35:00
12:55 AM,37.4,33.8,87,30.06,7.0,Calm,Calm,-,N/A,,Clear,0,2012-12-20 05:55:00
1:15 AM,35.6,32.0,87,30.04,7.0,ENE,3.5,-,N/A,,Clear,60,2012-12-20 06:15:00
1:35 AM,33.8,32.0,93,30.03,10.0,Calm,Calm,-,N/A,,Clear,0,2012-12-20 06:35:00
1:55 AM,33.8,32.0,93,30.03,7.0,Calm,Calm,-,N/A,,Clear,0,2012-12-20 06:55:00
2:15 AM,33.8,32.0,93,30.02,7.0,Calm,Calm,-,N/A,,Clear,0,2012-12-20 07:15:00
2:35 AM,32.0,32.0,100,30.01,5.0,ENE,3.5,-,N/A,,Clear,60,2012-12-20 07:35:00
2:55 AM,32.0,32.0,100,30.01,5.0,Calm,Calm,-,N/A,,Clear,0,2012-12-20 07:55:00
3:15 AM,32.0,32.0,100,29.99,5.0,Calm,Calm,-,N/A,,Clear,0,2012-12-20 08:15:00
3:35 AM,32.0,32.0,100,29.99,7.0,Calm,Calm,-,N/A,,Clear,0,2012-12-20 08:35:00
3:55 AM,35.6,33.8,93,29.97,10.0,East,3.5,-,N/A,,Clear,90,2012-12-20 08:55:00
4:15 AM,35.6,32.0,87,29.96,10.0,East,4.6,-,N/A,,Clear,100,2012-12-20 09:15:00
4:35 AM,37.4,33.8,87,29.94,10.0,East,3.5,-,N/A,,Clear,90,2012-12-20 09:35:00
4:55 AM,35.6,33.8,93,29.92,10.0,East,4.6,-,N/A,,Clear,90,2012-12-20 09:55:00
5:15 AM,35.6,33.8,93,29.90,10.0,East,3.5,-,N/A,,Clear,80,2012-12-20 10:15:00
5:35 AM,35.6,33.8,93,29.89,10.0,Calm,Calm,-,N/A,,Clear,0,2012-12-20 10:35:00
5:55 AM,35.6,32.0,87,29.87,7.0,Calm,Calm,-,N/A,,Clear,0,2012-12-20 10:55:00
6:15 AM,33.8,32.0,93,29.85,7.0,East,3.5,-,N/A,,Clear,80,2012-12-20 11:15:00
6:35 AM,33.8,32.0,93,29.83,10.0,ENE,3.5,-,N/A,,Clear,70,2012-12-20 11:35:00
6:55 AM,35.6,33.8,93,29.82,10.0,Calm,Calm,-,N/A,,Clear,0,2012-12-20 11:55:00
7:15 AM,37.4,33.8,87,29.79,10.0,ENE,4.6,-,N/A,,Clear,70,2012-12-20 12:15:00
7:35 AM,37.4,33.8,87,29.78,10.0,Calm,Calm,-,N/A,,Clear,0,2012-12-20 12:35:00
7:55 AM,33.8,32.0,93,29.76,10.0,ENE,3.5,-,N/A,,Clear,60,2012-12-20 12:55:00
8:15 AM,35.6,33.8,93,29.73,10.0,East,6.9,-,N/A,,Clear,80,2012-12-20 13:15:00
8:35 AM,44.6,33.8,66,29.73,10.0,East,5.8,-,N/A,,Clear,100,2012-12-20 13:35:00
8:55 AM,48.2,33.8,58,29.72,10.0,ESE,5.8,-,N/A,,Clear,120,2012-12-20 13:55:00
9:15 AM,50.0,33.8,54,29.73,10.0,SSE,5.8,-,N/A,,Scattered Clouds,150,2012-12-20 14:15:00
9:35 AM,51.8,33.8,50,29.74,10.0,SSE,5.8,-,N/A,,Mostly Cloudy,160,2012-12-20 14:35:00
9:55 AM,51.8,33.8,50,29.74,10.0,SSE,5.8,-,N/A,Rain,Light Rain,160,2012-12-20 14:55:00
10:15 AM,50.0,37.4,62,29.73,7.0,South,5.8,9.2,N/A,Rain,Light Rain,170,2012-12-20 15:15:00
10:35 AM,46.4,39.2,76,29.73,4.0,SSE,8.1,-,N/A,Rain,Rain,150,2012-12-20 15:35:00
10:55 AM,46.4,41.0,81,29.72,7.0,SSE,6.9,17.3,N/A,Rain,Light Rain,150,2012-12-20 15:55:00
11:15 AM,46.4,41.0,81,29.71,4.0,SSE,6.9,-,N/A,Rain,Rain,150,2012-12-20 16:15:00
11:35 AM,44.6,41.0,87,29.69,2.0,SE,6.9,-,N/A,Rain,Rain,130,2012-12-20 16:35:00
11:55 AM,44.6,42.8,93,29.67,7.0,SE,6.9,17.3,N/A,Rain,Light Rain,140,2012-12-20 16:55:00
12:15 PM,44.6,42.8,93,29.66,5.0,SE,6.9,-,N/A,Rain,Rain,130,2012-12-20 17:15:00
12:35 PM,44.6,42.8,93,29.63,7.0,SE,5.8,-,N/A,Rain,Light Rain,130,2012-12-20 17:35:00
12:55 PM,46.4,42.8,87,29.59,10.0,ESE,4.6,-,N/A,,Overcast,110,2012-12-20 17:55:00
1:15 PM,46.4,42.8,87,29.58,7.0,SE,5.8,-,N/A,Rain,Light Rain,140,2012-12-20 18:15:00
1:35 PM,46.4,42.8,87,29.56,5.0,SE,5.8,-,N/A,Rain,Rain,130,2012-12-20 18:35:00
1:55 PM,46.4,42.8,87,29.54,5.0,SE,4.6,-,N/A,Rain,Light Rain,130,2012-12-20 18:55:00
2:15 PM,46.4,42.8,87,29.54,4.0,SSE,3.5,-,N/A,Rain,Light Rain,160,2012-12-20 19:15:00
2:35 PM,46.4,42.8,87,29.54,5.0,SE,4.6,-,N/A,Rain,Rain,140,2012-12-20 19:35:00
2:55 PM,46.4,42.8,87,29.52,5.0,ESE,3.5,-,N/A,Rain,Light Rain,110,2012-12-20 19:55:00
3:15 PM,46.4,42.8,87,29.51,5.0,ESE,3.5,-,N/A,Rain,Rain,120,2012-12-20 20:15:00
3:35 PM,46.4,42.8,87,29.49,7.0,Calm,Calm,-,N/A,Rain,Light Rain,0,2012-12-20 20:35:00
3:55 PM,46.4,42.8,87,29.47,4.0,ESE,4.6,-,N/A,Rain,Light Rain,120,2012-12-20 20:55:00
4:15 PM,46.4,42.8,87,29.44,7.0,ESE,6.9,-,N/A,Rain,Light Rain,120,2012-12-20 21:15:00
4:35 PM,46.4,42.8,87,29.44,10.0,SE,4.6,-,N/A,,Overcast,140,2012-12-20 21:35:00
4:55 PM,46.4,42.8,87,29.44,10.0,SSE,4.6,-,N/A,,Overcast,150,2012-12-20 21:55:00
5:15 PM,46.4,42.8,87,29.44,10.0,SSE,8.1,-,N/A,,Overcast,150,2012-12-20 22:15:00
5:35 PM,46.4,42.8,87,29.44,5.0,SSE,5.8,-,N/A,,Overcast,150,2012-12-20 22:35:00
5:55 PM,46.4,42.8,87,29.43,7.0,South,5.8,-,N/A,Rain,Light Rain,170,2012-12-20 22:55:00
6:15 PM,46.4,42.8,87,29.43,10.0,South,5.8,-,N/A,,Overcast,170,2012-12-20 23:15:00
6:35 PM,48.2,42.8,82,29.43,10.0,South,5.8,-,N/A,Rain,Light Rain,190,2012-12-20 23:35:00
6:55 PM,50.0,42.8,76,29.42,10.0,South,4.6,16.1,N/A,,Overcast,190,2012-12-20 23:55:00
7:15 PM,50.0,44.6,82,29.42,7.0,South,9.2,17.3,N/A,Rain,Rain,190,2012-12-21 00:15:00
7:35 PM,44.6,41.0,87,29.45,4.0,SW,18.4,32.2,N/A,Rain,Light Rain,230,2012-12-21 00:35:00
7:55 PM,44.6,41.0,87,29.47,10.0,SW,15.0,26.5,N/A,Rain,Light Rain,230,2012-12-21 00:55:00
8:15 PM,44.6,37.4,76,29.49,4.0,WSW,21.9,35.7,N/A,Rain,Light Rain,240,2012-12-21 01:15:00
8:35 PM,42.8,35.6,76,29.49,10.0,WSW,24.2,40.3,N/A,Rain,Light Rain,240,2012-12-21 01:35:00
8:55 PM,41.0,33.8,76,29.51,10.0,WSW,17.3,36.8,N/A,,Overcast,240,2012-12-21 01:55:00
9:15 PM,41.0,32.0,70,29.51,10.0,WSW,20.7,35.7,N/A,,Overcast,250,2012-12-21 02:15:00
9:35 PM,39.2,30.2,70,29.52,10.0,WSW,18.4,34.5,N/A,,Mostly Cloudy,240,2012-12-21 02:35:00
9:55 PM,39.2,30.2,70,29.53,10.0,WSW,18.4,29.9,N/A,,Mostly Cloudy,240,2012-12-21 02:55:00
10:15 PM,39.2,28.4,65,29.54,10.0,WSW,12.7,31.1,N/A,,Overcast,250,2012-12-21 03:15:00
10:35 PM,39.2,28.4,65,29.54,10.0,WSW,21.9,33.4,N/A,,Overcast,250,2012-12-21 03:35:00
10:55 PM,37.4,28.4,70,29.55,10.0,WSW,20.7,32.2,N/A,,Overcast,240,2012-12-21 03:55:00
11:15 PM,37.4,28.4,70,29.56,10.0,WSW,13.8,29.9,N/A,,Overcast,240,2012-12-21 04:15:00
11:35 PM,35.6,30.2,81,29.57,10.0,WSW,17.3,28.8,N/A,,Mostly Cloudy,240,2012-12-21 04:35:00
11:55 PM,35.6,30.2,81,29.56,10.0,WSW,19.6,29.9,N/A,,Mostly Cloudy,240,2012-12-21 04:55:00